Location: Devore Heights
(34.2372°N, 117.4156°W)
Time: 07:26:45
(UTC+00:00)

Explorer 11/Cluster Stage 4 - All Passes

Search period start: 19 September 2024 00:00
Search period end: 29 September 2024 00:00
Orbit: 464 x 1208 km, 28.8° (Epoch: 18 September)

Date Brightness Start Highest point End Pass type
(mag) Time Alt. Az. Time Alt. Az. Time Alt. Az.
19 Sep - 10:51:51 10° S 10:54:35 15° SSE 10:57:37 10° ESE visible
19 Sep - 12:36:48 10° SW 12:41:46 39° SSE 12:47:50 10° E visible
19 Sep - 14:23:44 10° WSW 14:29:41 55° S 14:36:50 10° ESE daylight
19 Sep - 16:11:27 10° W 16:17:55 45° SSW 16:25:16 10° ESE daylight
19 Sep - 18:00:16 10° WSW 18:06:03 24° SSW 18:12:06 10° SSE daylight
20 Sep - 10:32:53 10° S 10:35:29 15° SSE 10:38:20 10° ESE visible
20 Sep - 12:17:54 10° SW 12:22:37 39° SSE 12:28:25 10° E visible
20 Sep - 14:04:48 10° WSW 14:10:28 53° S 14:17:22 10° ESE daylight
20 Sep - 15:52:26 10° W 15:58:38 42° SSW 16:05:45 10° SE daylight
20 Sep - 17:41:16 10° WSW 17:46:43 22° SSW 17:52:29 10° SSE daylight
21 Sep - 10:13:55 10° S 10:16:22 15° SSE 10:19:05 10° ESE visible
21 Sep - 11:59:00 10° SW 12:03:30 38° SSE 12:09:00 10° E visible
21 Sep - 13:45:53 10° WSW 13:51:16 52° S 13:57:53 10° ESE daylight
21 Sep - 15:33:28 10° W 15:39:21 40° SSW 15:46:13 10° SE daylight
21 Sep - 17:22:20 10° WSW 17:27:23 21° SSW 17:32:47 10° SSE daylight
22 Sep - 09:54:56 10° S 09:57:18 15° SSE 09:59:52 10° ESE visible
22 Sep - 11:40:07 10° SW 11:44:24 38° SSE 11:49:37 10° E visible
22 Sep - 13:26:59 10° WSW 13:32:06 50° S 13:38:25 10° ESE daylight
22 Sep - 15:14:31 10° W 15:20:05 37° SSW 15:26:39 10° SE daylight
22 Sep - 17:03:28 10° WSW 17:08:04 19° SSW 17:13:02 10° SSE daylight
23 Sep - 09:35:57 10° S 09:38:13 15° SSE 09:40:41 10° ESE night (unlit)
23 Sep - 11:21:15 10° SW 11:25:19 37° SSE 11:30:15 10° E visible
23 Sep - 13:08:06 10° WSW 13:12:56 48° S 13:18:56 10° ESE visible
23 Sep - 14:55:37 10° WSW 15:00:51 34° SSW 15:07:04 10° SE daylight
23 Sep - 16:44:42 10° WSW 16:48:46 17° SSW 16:53:10 10° SSE daylight
24 Sep - 09:16:56 10° S 09:19:09 15° SSE 09:21:33 10° ESE night (unlit)
24 Sep - 11:02:22 10° SW 11:06:15 37° SSE 11:10:53 10° ESE visible
24 Sep - 12:49:14 10° WSW 12:53:48 45° S 12:59:28 10° ESE visible
24 Sep - 14:36:44 10° WSW 14:41:38 31° SSW 14:47:28 10° SE daylight
24 Sep - 16:26:03 10° WSW 16:29:29 15° SSW 16:33:12 10° S daylight
25 Sep - 08:57:53 10° SSW 09:00:06 15° SSE 09:02:26 10° ESE night (unlit)
25 Sep - 10:43:28 10° WSW 10:47:11 36° S 10:51:35 10° ESE visible
25 Sep - 12:30:22 10° WSW 12:34:42 43° S 12:40:01 10° ESE visible
25 Sep - 14:17:52 10° WSW 14:22:26 29° SSW 14:27:50 10° SE daylight
25 Sep - 16:07:36 10° SW 16:10:14 13° SSW 16:13:02 10° S daylight
26 Sep - 08:38:50 10° SSW 08:41:03 15° SSE 08:43:23 10° ESE night (unlit)
26 Sep - 10:24:34 10° WSW 10:28:08 36° S 10:32:17 10° ESE visible
26 Sep - 12:11:30 10° WSW 12:15:36 40° S 12:20:35 10° ESE visible
26 Sep - 13:59:04 10° WSW 14:03:15 26° SSW 14:08:12 10° SE daylight
26 Sep - 15:49:36 10° SW 15:50:59 11° SSW 15:52:25 10° SSW daylight
27 Sep - 08:19:42 10° SSW 08:22:00 16° SSE 08:24:22 10° ESE night (unlit)
27 Sep - 10:05:40 10° WSW 10:09:07 35° S 10:13:02 10° ESE visible
27 Sep - 11:52:38 10° WSW 11:56:31 38° S 12:01:09 10° ESE visible
27 Sep - 13:40:17 10° WSW 13:44:05 23° SSW 13:48:33 10° SE daylight
28 Sep - 08:00:33 10° SSW 08:02:57 17° SSE 08:05:23 10° ESE night (unlit)
28 Sep - 09:46:44 10° WSW 09:50:05 35° S 09:53:49 10° ESE night (unlit)
28 Sep - 11:33:46 10° WSW 11:37:27 35° S 11:41:46 10° ESE visible
28 Sep - 13:21:32 10° WSW 13:24:57 20° SSW 13:28:52 10° SSE daylight
